Flag for Germany Weather past 2 weeks in Duisburg, North Rhine-Westphalia, Germany

Now
41 °F

Passing clouds.


Feels Like: 34 °F
Forecast: 36 / 44 °F
Wind: 12 mph from West

Location: Duesseldorf

Current Time: Mar 2, 2015 at 5:42:14 AM

Latest Report: Mar 2, 2015 at 5:20 AM


Visibility: N/A

Pressure: 29.56 "Hg

Humidity: 70%

Dew point: 32 °F

Location of DuisburgLocation

Historic Weather in Duisburg — Graph

°F

Duisburg temperature yesterday

Maximum temperature yesterday: 52 °F (at 10:50 AM)
Minimum temperature yesterday: 41 °F (at 3:50 AM)
Average temperature yesterday: 47 °F

Past Weeks' High & Low Weather Summary

 TemperatureHumidityPressure
High52 °F (Mar 1, 10:50 AM)100% (Feb 15, 4:20 AM)30.77 "Hg (Feb 15, 4:20 AM)
Low27 °F (Feb 15, 7:50 AM)43% (Feb 28, 3:50 PM)29.36 "Hg (Feb 21, 3:50 AM)
Average40 °F81%29.95 "Hg
* Reported Feb 15 4:20 AM — Mar 2 4:50 AM, Duisburg, Weather by CustomWeather, © 2015

Note: Actual official high and low records may vary slightly from our data, if they occured in-between our weather recording intervals... More about our weather records

Advertising

Duisburg weather history for previous 24 hours

 ConditionsComfort  
Time TempWeatherWind HumidityBarometerVisibility
4:50 AM
Mon, Mar 2
43 °FPassing clouds.15 mph66%29.56 "HgN/A
4:20 AM43 °FPassing clouds.16 mph66%29.56 "HgN/A
3:50 AM43 °FPassing clouds.17 mph66%29.53 "HgN/A
3:20 AM45 °FPassing clouds.18 mph66%29.53 "HgN/A
2:50 AM45 °FPassing clouds.22 mph66%29.50 "HgN/A
2:20 AM46 °FPartly cloudy.14 mph71%29.47 "HgN/A
1:50 AM46 °FPassing clouds.17 mph76%29.47 "HgN/A
1:20 AM46 °FSprinkles. Partly cloudy.21 mph82%29.45 "HgN/A
12:50 AM46 °FPassing clouds.23 mph76%29.45 "HgN/A
12:20 AM48 °FSprinkles. Passing clouds.17 mph66%29.45 "HgN/A
11:50 PM
Sun, Mar 1
48 °FPassing clouds.15 mph71%29.47 "HgN/A
11:20 PM46 °FPassing clouds.10 mph71%29.50 "HgN/A
10:50 PM46 °FPassing clouds.9 mph76%29.50 "HgN/A
10:20 PM46 °FPartly cloudy.10 mph76%29.53 "HgN/A
9:50 PM46 °FSprinkles. Passing clouds.12 mph76%29.56 "HgN/A
9:20 PM46 °FClear.10 mph76%29.56 "Hg10 mi
8:20 PM45 °FClear.14 mph76%29.59 "Hg10 mi
7:50 PM45 °FPassing clouds.13 mph71%29.62 "HgN/A
7:20 PM46 °FPassing clouds.13 mph71%29.62 "HgN/A
6:50 PM46 °FSprinkles. Passing clouds.12 mph71%29.62 "HgN/A
6:20 PM48 °FScattered showers. Passing clouds.17 mph66%29.62 "HgN/A
5:50 PM50 °FScattered showers. Scattered clouds.16 mph58%29.62 "HgN/A
5:20 PM50 °FPassing clouds.21 mph54%29.59 "HgN/A
4:20 PM52 °FScattered clouds.23 mph58%29.62 "HgN/A
3:50 PM52 °FPassing clouds.18 mph54%29.59 "HgN/A
3:20 PM52 °FScattered clouds.21 mph58%29.59 "HgN/A
2:50 PM50 °FPartly sunny.24 mph62%29.62 "HgN/A
2:20 PM52 °FPartly sunny.20 mph54%29.62 "HgN/A
1:50 PM52 °FPartly sunny.22 mph58%29.59 "HgN/A
1:20 PM52 °FScattered clouds.22 mph50%29.62 "HgN/A
12:50 PM52 °FPassing clouds.26 mph54%29.62 "HgN/A
12:20 PM52 °FPassing clouds.22 mph54%29.62 "HgN/A
11:50 AM50 °FScattered clouds.20 mph62%29.62 "HgN/A
11:20 AM50 °FScattered clouds.23 mph62%29.62 "HgN/A
10:50 AM52 °FPassing clouds.21 mph67%29.59 "HgN/A
10:20 AM50 °FScattered showers. Broken clouds.17 mph76%29.59 "HgN/A
9:50 AM48 °FBroken clouds.20 mph87%29.59 "HgN/A
9:20 AM48 °FPartly sunny.16 mph87%29.59 "HgN/A
8:50 AM46 °FBroken clouds.14 mph93%29.59 "HgN/A
8:20 AM43 °FDrizzle. Broken clouds.13 mph100%29.59 "HgN/A
7:50 AM41 °FDrizzle. Mostly cloudy.14 mph100%29.56 "Hg3 mi
7:20 AM41 °FDrizzle. Mostly cloudy.15 mph100%29.56 "Hg3 mi
6:50 AM41 °FDrizzle. Overcast.17 mph93%29.56 "Hg4 mi
6:20 AM41 °FDrizzle. Mostly cloudy.18 mph100%29.56 "Hg2 mi
5:50 AM41 °FPartly cloudy.18 mph93%29.59 "Hg2 mi
5:20 AM41 °FPartly cloudy.21 mph93%29.59 "Hg2 mi
Weather by CustomWeather, © 2015

See weather overviewHow to use our weather pages